Plymouth, MA

8:39 AM EDT on June 24, 2017 (GMT -0400)
Plymouth Municipal

Weather History for KPYM - September, 2012

Change the Weather History Date:

Wednesday, September 5, 2012

  Actual Average Record
Temperature  
Mean Temperature 70 °F -  
Max Temperature 75 °F 74 °F 93 °F (1973)
Min Temperature 64 °F 53 °F 37 °F (1997)
Cooling Degree Days 6    
Growing Degree Days 20 (Base 50)    
Moisture  
Dew Point 71 °F    
Average Humidity 91    
Maximum Humidity 94    
Minimum Humidity 83    
Precipitation  
Precipitation 1.34 in - - ()
Sea Level Pressure  
Sea Level Pressure 29.79 in    
Wind  
Wind Speed 10 mph (SW)    
Max Wind Speed 16 mph    
Max Gust Speed 25 mph    
Visibility 6 miles    
Events Fog , Rain , Thunderstorm    
Averages and records for this station are not official NWS values.
T = Trace of Precipitation, MM = Missing Value Source: NWS Daily Summary

Daily Weather History Graph

Daily Weather History Graph

Search for Another Location

Airport or City:

Trip Planner

Search our weather history database for the weather conditions in past years. The results will help you decide how hot, cold, wet, or windy it might be!

Date:

Astronomy

Sep. 05, 2012 Rise Set
Actual Time 6:13 AM EDT 7:08 PM EDT
Civil Twilight 5:44 AM EDT 7:37 PM EDT
Nautical Twilight 5:10 AM EDT 8:10 PM EDT
Astronomical Twilight 4:35 AM EDT 8:46 PM EDT
Moon 9:30 PM EDT (9/5) 11:20 AM EDT (9/5)
Length of Visible Light 13h 52m
Length of Day
12h 55m
Waning Gibbous, 76% of the Moon is Illuminated
Sep 5
Waning Gibbous
Sep 8
Last Quarter
Sep 15
New
Sep 22
First Quarter
Sep 29
Full

Hourly Weather History & Observations

Time (EDT) Temp. Dew Point Humidity Pressure Visibility Wind Dir Wind Speed Gust Speed Precip Events Conditions
12:52 AM 73.9 °F 72.0 °F 93% 29.89 in 7.0 mi SSW 8.1 mph - N/A   Overcast
1:12 AM 73.4 °F 71.6 °F 94% 29.88 in 8.0 mi SSW 8.1 mph 17.3 mph N/A   Overcast
1:52 AM 75.0 °F 72.0 °F 90% 29.86 in 8.0 mi SSW 9.2 mph 18.4 mph N/A   Overcast
2:52 AM 75.0 °F 72.0 °F 90% 29.84 in 9.0 mi SSW 10.4 mph 25.3 mph N/A   Overcast
3:01 AM 75.2 °F 71.6 °F 89% 29.84 in 9.0 mi SSW 11.5 mph 19.6 mph N/A   Overcast
3:52 AM 75.0 °F 72.0 °F 90% 29.82 in 10.0 mi SSW 12.7 mph 20.7 mph N/A   Overcast
4:52 AM 75.9 °F 72.0 °F 87% 29.80 in 10.0 mi SSW 10.4 mph 23.0 mph N/A   Overcast
5:52 AM 75.9 °F 72.0 °F 87% 29.79 in 9.0 mi SSW 16.1 mph 25.3 mph 0.00 in Rain Light Rain
6:24 AM 75.2 °F 71.6 °F 89% 29.79 in 4.0 mi SW 15.0 mph - 0.07 in Rain Rain
6:52 AM 75.0 °F 72.0 °F 90% 29.79 in 4.0 mi SW 13.8 mph 21.9 mph 0.10 in Rain Light Rain
7:52 AM 75.0 °F 72.0 °F 90% 29.78 in 7.0 mi SW 12.7 mph 19.6 mph 0.01 in   Overcast
8:52 AM 75.0 °F 73.0 °F 94% 29.78 in 4.0 mi SW 11.5 mph - 0.04 in Rain Light Rain
8:56 AM 75.2 °F 73.4 °F 94% 29.78 in 2.5 mi SW 13.8 mph 24.2 mph 0.01 in Rain , Thunderstorm Heavy Rain
9:09 AM 75.2 °F 73.4 °F 94% 29.78 in 4.0 mi SW 11.5 mph 21.9 mph 0.02 in Rain , Thunderstorm Light Thunderstorms and Rain
9:32 AM 75.2 °F 73.4 °F 94% 29.78 in 5.0 mi SW 12.7 mph 23.0 mph 0.04 in Rain Light Rain
9:52 AM 75.9 °F 73.0 °F 91% 29.78 in 6.0 mi SW 11.5 mph - 0.05 in Rain Light Rain
10:24 AM 75.2 °F 73.4 °F 94% 29.77 in 4.0 mi SW 15.0 mph 23.0 mph 0.01 in Rain , Thunderstorm Light Thunderstorms and Rain
10:45 AM 75.2 °F 73.4 °F 94% 29.78 in 5.0 mi SW 12.7 mph - 0.02 in Rain Light Rain
10:52 AM 75.0 °F 73.0 °F 94% 29.78 in 2.5 mi SW 13.8 mph - 0.04 in Rain Rain
11:01 AM 75.2 °F 73.4 °F 94% 29.78 in 1.2 mi SW 12.7 mph - 0.06 in Rain , Thunderstorm Heavy Rain
11:13 AM 75.2 °F 73.4 °F 94% 29.77 in 3.0 mi SSW 11.5 mph - 0.10 in Rain , Thunderstorm Light Rain
11:22 AM 75.2 °F 73.4 °F 94% 29.77 in 3.0 mi SSW 13.8 mph 19.6 mph 0.12 in Rain Light Rain
11:29 AM 75.2 °F 73.4 °F 94% 29.77 in 7.0 mi SW 11.5 mph - 0.12 in Rain Light Rain
11:36 AM 75.2 °F 73.4 °F 94% 29.77 in 8.0 mi SSW 11.5 mph - 0.12 in   Overcast
11:43 AM 75.2 °F 73.4 °F 94% 29.77 in 8.0 mi SW 11.5 mph - 0.12 in   Overcast
11:52 AM 75.0 °F 73.0 °F 94% 29.77 in 6.0 mi SW 12.7 mph - 0.12 in Rain , Thunderstorm Light Rain
12:21 PM 73.4 °F 71.6 °F 94% 29.78 in 2.0 mi SSW 15.0 mph 24.2 mph 0.09 in Rain , Thunderstorm Heavy Rain
12:52 PM 73.9 °F 71.1 °F 91% 29.78 in 3.0 mi SW 10.4 mph - 0.29 in Rain , Thunderstorm Thunderstorms and Rain
1:27 PM 73.4 °F 71.6 °F 94% 29.77 in 6.0 mi SSW 6.9 mph - 0.04 in Rain , Thunderstorm Light Rain
1:52 PM 73.9 °F 72.0 °F 93% 29.76 in 9.0 mi SSW 5.8 mph - 0.07 in Rain Light Rain
2:04 PM 73.4 °F 71.6 °F 94% 29.77 in 7.0 mi SW 5.8 mph - 0.01 in Rain , Thunderstorm Light Rain
2:09 PM 73.4 °F 71.6 °F 94% 29.77 in 2.5 mi West 8.1 mph - 0.03 in Rain , Thunderstorm Heavy Rain
2:12 PM 73.4 °F 71.6 °F 94% 29.77 in 1.5 mi WSW 5.8 mph - 0.05 in Rain , Thunderstorm Heavy Rain
2:24 PM 73.4 °F 71.6 °F 94% 29.77 in 0.5 mi WSW 10.4 mph - 0.35 in Fog , Rain , Thunderstorm Heavy Thunderstorms and Rain
2:35 PM 73.4 °F 71.6 °F 94% 29.77 in 1.0 mi WSW 9.2 mph - 0.48 in Rain , Thunderstorm Heavy Thunderstorms and Rain
2:52 PM 73.9 °F 71.1 °F 91% 29.76 in 1.0 mi Variable 5.8 mph - 0.61 in Rain , Thunderstorm Heavy Rain
2:58 PM 73.4 °F 71.6 °F 94% 29.76 in 2.0 mi SW 5.8 mph - 0.01 in Rain Light Rain
3:06 PM 75.2 °F 71.6 °F 89% 29.76 in 8.0 mi West 8.1 mph - 0.01 in Rain Light Rain
3:21 PM 75.2 °F 71.6 °F 89% 29.77 in 10.0 mi WSW 8.1 mph - 0.01 in   Overcast
3:52 PM 75.0 °F 70.0 °F 84% 29.75 in 10.0 mi SW 4.6 mph - 0.01 in   Overcast
4:52 PM 75.0 °F 71.1 °F 87% 29.76 in 10.0 mi SW 3.5 mph - 0.00 in Rain Light Rain
5:52 PM 73.9 °F 71.1 °F 91% 29.77 in 10.0 mi Calm Calm - 0.00 in   Overcast
6:28 PM 73.4 °F 71.6 °F 94% 29.79 in 10.0 mi WNW 3.5 mph - N/A   Overcast
6:36 PM 73.4 °F 69.8 °F 88% 29.80 in 10.0 mi NNE 6.9 mph - N/A   Overcast
6:45 PM 71.6 °F 69.8 °F 94% 29.81 in 10.0 mi NE 8.1 mph - N/A   Overcast
6:52 PM 72.0 °F 66.9 °F 84% 29.81 in 10.0 mi ENE 6.9 mph - N/A   Overcast
7:14 PM 71.6 °F 66.2 °F 83% 29.81 in 10.0 mi NE 5.8 mph - N/A   Overcast
7:52 PM 70.0 °F 66.0 °F 87% 29.81 in 10.0 mi East 5.8 mph - N/A   Overcast
8:52 PM 68.0 °F 64.0 °F 87% 29.84 in 10.0 mi East 4.6 mph - N/A   Overcast
9:52 PM 66.9 °F 63.0 °F 87% 29.83 in 10.0 mi ENE 3.5 mph - N/A   Clear
10:52 PM 66.0 °F 63.0 °F 90% 29.84 in 10.0 mi ENE 3.5 mph - N/A   Clear
11:52 PM 64.0 °F 62.1 °F 93% 29.84 in 10.0 mi Calm Calm - N/A   Clear